Date String (YYYY-MM-DD hh:mm:ss) UTC,Instrument flags,absolute air pressure of the measurement (hPa),sample flow rate (lpm),inlet stack bypass flow (lpm),air temperature of the measurement (°C),ambient temperature measured by the external sensor (°C),aerosol sample conditioner tube jacket temperature (°C),OPC LED temperature (°C),internal box temperature (°C),relative humidity of the measurement (%),span deviation,mass concentration of particles derived from Lorenz-Mie calculation of OPC scattering (μg/m³),mass concentration of particles derived from Lorenz-Mie calculation of OPC scattering (μg/m³),mass concentration of particles derived from Lorenz-Mie calculation of OPC scattering (μg/m³)
DateTimeUTC,F1_M11,P_M11,Q1_M11,Q2_M11,T1_M11,T2_M11,T3_M11,T4_M11,T5_M11,U1_M11,ZSPAN_M11,X0_M11,X2_M11,X1_M11
2023-09-16 10:00:00,SystemResetWarning,0835.8,5.00,000.00,027.1,025.5,000.0,035.7,028.6,19.8,0000.0,0007.60,0003.95,0003.55
2023-09-16 10:01:00,SystemResetWarning,0835.8,5.00,000.00,027.1,025.5,000.0,035.6,028.6,19.8,0000.0,0008.41,0003.94,0003.54
2023-09-16 10:02:00,SystemResetWarning,0835.8,4.99,000.00,027.1,025.5,000.0,035.6,028.6,19.9,0000.0,0008.99,0003.93,0003.53
2023-09-16 10:03:00,SystemResetWarning,0835.8,4.99,000.00,027.1,025.5,000.0,035.6,028.6,20.0,0000.0,0009.00,0003.93,0003.53
2023-09-16 10:04:00,SystemResetWarning,0835.8,5.01,000.00,027.1,025.5,000.0,035.6,028.6,19.8,0000.0,0008.88,0003.90,0003.53
2023-09-16 10:05:00,SystemResetWarning,0835.8,5.00,000.00,027.1,025.5,000.0,035.6,028.6,19.9,0000.0,0008.84,0003.88,0003.53
2023-09-16 10:06:00,SystemResetWarning,0835.8,5.00,000.00,027.1,025.5,000.0,035.6,028.6,20.0,0000.0,0008.85,0003.89,0003.53
2023-09-16 10:07:00,SystemResetWarning,0835.8,5.00,000.00,027.1,025.5,000.0,035.6,028.6,19.9,0000.0,0008.86,0003.90,0003.54
2023-09-16 10:08:00,SystemResetWarning,0835.8,5.01,000.00,027.1,025.5,000.0,035.6,028.6,19.9,0000.0,0008.93,0003.91,0003.55
2023-09-16 10:09:00,SystemResetWarning,0835.8,4.99,000.00,027.1,025.5,000.0,035.6,028.6,20.1,0000.0,0008.90,0003.91,0003.54
2023-09-16 10:10:00,SystemResetWarning,0835.8,4.99,000.00,027.1,025.5,000.0,035.6,028.6,20.1,0000.0,0008.49,0003.92,0003.54
2023-09-16 10:11:00,SystemResetWarning,0835.8,5.00,000.00,027.1,025.4,000.0,035.6,028.6,20.0,0000.0,0008.13,0003.90,0003.54
2023-09-16 10:12:00,SystemResetWarning,0835.8,5.01,000.00,027.1,025.4,000.0,035.6,028.6,20.2,0000.0,0007.34,0003.90,0003.55
2023-09-16 10:13:00,SystemResetWarning,0835.8,5.01,000.00,027.1,025.4,000.0,035.6,028.6,20.1,0000.0,0006.27,0003.90,0003.55
2023-09-16 10:14:00,SystemResetWarning,0835.8,4.99,000.00,027.1,025.4,000.0,035.6,028.6,20.1,0000.0,0006.29,0003.90,0003.56
2023-09-16 10:15:00,SystemResetWarning,0835.8,4.99,000.00,027.0,025.4,000.0,035.5,028.6,20.1,0000.0,0006.46,0003.93,0003.56
2023-09-16 10:16:00,SystemResetWarning,0835.8,5.00,000.00,027.0,025.4,000.0,035.6,028.6,20.1,0000.0,0006.62,0003.96,0003.56
2023-09-16 10:17:00,SystemResetWarning,0835.8,4.99,000.00,027.0,025.4,000.0,035.5,028.6,20.1,0000.0,0006.55,0003.94,0003.56
2023-09-16 10:18:00,SystemResetWarning,0835.8,5.00,000.00,027.0,025.4,000.0,035.5,028.6,19.9,0000.0,0007.01,0003.93,0003.56
2023-09-16 10:19:00,SystemResetWarning,0835.8,5.00,000.00,027.0,025.4,000.0,035.5,028.5,19.9,0000.0,0007.35,0003.94,0003.55
2023-09-16 10:20:00,SystemResetWarning,0835.7,5.01,000.00,027.0,025.4,000.0,035.5,028.6,19.9,0000.0,0007.41,0003.94,0003.56
2023-09-16 10:21:00,SystemResetWarning,0835.8,5.01,000.00,027.0,025.4,000.0,035.5,028.6,19.9,0000.0,0007.45,0003.95,0003.56
2023-09-16 10:22:00,SystemResetWarning,0835.8,5.00,000.00,027.0,025.4,000.0,035.5,028.6,19.9,0000.0,0007.72,0003.96,0003.56
2023-09-16 10:23:00,SystemResetWarning,0835.8,4.99,000.00,027.0,025.4,000.0,035.5,028.5,19.8,0000.0,0007.78,0003.98,0003.58
2023-09-16 10:24:00,SystemResetWarning,0835.8,5.00,000.00,027.0,025.4,000.0,035.5,028.6,19.7,0000.0,0007.68,0003.98,0003.59
2023-09-16 10:25:00,SystemResetWarning,0835.8,4.99,000.00,027.0,025.4,000.0,035.5,028.6,19.8,0000.0,0007.72,0004.01,0003.60
2023-09-16 10:26:00,SystemResetWarning,0835.8,5.00,000.00,027.0,025.4,000.0,035.5,028.6,19.8,0000.0,0007.74,0004.02,0003.61
2023-09-16 10:27:00,SystemResetWarning,0835.8,5.01,000.00,027.0,025.4,000.0,035.5,028.5,19.8,0000.0,0007.69,0004.02,0003.64
2023-09-16 10:28:00,SystemResetWarning,0835.8,5.01,000.00,027.0,025.4,000.0,035.5,028.5,19.8,0000.0,0007.75,0004.07,0003.67
2023-09-16 10:29:00,SystemResetWarning,0835.8,5.00,000.00,027.0,025.4,000.0,035.5,028.5,19.8,0000.0,0007.52,0004.07,0003.67
2023-09-16 10:30:00,SystemResetWarning,0835.8,5.00,000.00,027.0,025.4,000.0,035.5,028.5,19.8,0000.0,0007.34,0004.08,0003.68
2023-09-16 10:31:00,SystemResetWarning,0835.8,4.99,000.00,027.0,025.4,000.0,035.5,028.5,19.8,0000.0,0007.28,0004.09,0003.69
2023-09-16 10:32:00,SystemResetWarning,0835.8,5.00,000.00,027.0,025.4,000.0,035.5,028.5,19.9,0000.0,0007.37,0004.11,0003.70
2023-09-16 10:33:00,SystemResetWarning,0835.7,5.00,000.00,027.0,025.4,000.0,035.5,028.5,19.8,0000.0,0007.00,0004.14,0003.71
2023-09-16 10:34:00,SystemResetWarning,0835.8,5.00,000.00,027.0,025.4,000.0,035.5,028.5,19.8,0000.0,0006.89,0004.15,0003.71
2023-09-16 10:35:00,SystemResetWarning,0835.8,5.01,000.00,027.0,025.4,000.0,035.5,028.4,19.7,0000.0,0006.98,0004.17,0003.71
2023-09-16 10:36:00,SystemResetWarning,0835.8,5.01,000.00,026.9,025.4,000.0,035.5,028.4,19.7,0000.0,0007.20,0004.15,0003.71
2023-09-16 10:37:00,SystemResetWarning,0835.8,4.99,000.00,026.9,025.4,000.0,035.4,028.5,19.7,0000.0,0007.41,0004.13,0003.70
2023-09-16 10:38:00,SystemResetWarning,0835.8,4.99,000.00,026.9,025.3,000.0,035.4,028.5,19.8,0000.0,0007.38,0004.10,0003.68
2023-09-16 10:39:00,SystemResetWarning,0835.8,4.99,000.00,026.9,025.3,000.0,035.4,028.5,19.9,0000.0,0007.47,0004.09,0003.68
2023-09-16 10:40:00,SystemResetWarning,0835.8,5.00,000.00,026.9,025.3,000.0,035.4,028.5,19.9,0000.0,0007.46,0004.08,0003.68
2023-09-16 10:41:00,SystemResetWarning,0835.8,5.01,000.00,026.9,025.3,000.0,035.4,028.5,19.9,0000.0,0007.43,0004.06,0003.69
2023-09-16 10:42:00,SystemResetWarning,0835.8,5.00,000.00,026.9,025.3,000.0,035.4,028.5,19.8,0000.0,0007.76,0004.05,0003.69
2023-09-16 10:43:00,SystemResetWarning,0835.8,5.00,000.00,026.9,025.3,000.0,035.4,028.5,19.8,0000.0,0007.84,0004.05,0003.69
2023-09-16 10:44:00,SystemResetWarning,0835.8,5.00,000.00,026.9,025.3,000.0,035.4,028.4,19.9,0000.0,0007.85,0004.04,0003.69
2023-09-16 10:45:00,SystemResetWarning,0835.9,5.00,000.00,026.9,025.3,000.0,035.4,028.4,19.9,0000.0,0007.83,0004.03,0003.69
2023-09-16 10:46:00,SystemResetWarning,0835.8,5.00,000.00,026.9,025.3,000.0,035.4,028.4,19.8,0000.5,0007.81,0004.03,0003.70
2023-09-16 10:47:00,SystemResetWarning,0835.9,5.00,000.00,026.9,025.3,000.0,035.4,028.4,19.9,0000.5,0007.65,0004.02,0003.70
2023-09-16 10:48:00,SystemResetWarning,0835.9,5.00,000.00,026.9,025.3,000.0,035.4,028.4,19.9,0000.0,0007.47,0004.02,0003.71
2023-09-16 10:49:00,SystemResetWarning,0835.9,4.99,000.00,026.9,025.3,000.0,035.4,028.4,20.0,0000.1,0007.50,0004.04,0003.73
2023-09-16 10:50:00,SystemResetWarning,0835.9,4.99,000.00,026.9,025.3,000.0,035.4,028.5,19.9,0000.0,0007.61,0004.04,0003.72
2023-09-16 10:51:00,SystemResetWarning,0835.9,5.01,000.00,026.9,025.3,000.0,035.4,028.4,20.0,0000.0,0007.75,0004.07,0003.72
2023-09-16 10:52:00,SystemResetWarning,0835.9,5.01,000.00,026.9,025.3,000.0,035.4,028.4,19.9,0000.0,0007.64,0004.07,0003.72
2023-09-16 10:53:00,SystemResetWarning,0835.9,5.00,000.00,026.9,025.3,000.0,035.4,028.4,20.0,0000.0,0007.36,0004.08,0003.71
2023-09-16 10:54:00,SystemResetWarning,0835.9,5.00,000.00,026.9,025.3,000.0,035.4,028.4,19.9,0000.0,0007.59,0004.06,0003.70
2023-09-16 10:55:00,SystemResetWarning,0835.9,5.00,000.00,026.9,025.3,000.0,035.4,028.4,19.9,0000.0,0007.64,0004.06,0003.70
2023-09-16 10:56:00,SystemResetWarning,0835.9,5.00,000.00,026.9,025.3,000.0,035.4,028.4,19.8,0000.0,0007.73,0004.07,0003.69
2023-09-16 10:57:00,SystemResetWarning,0835.9,5.00,000.00,026.9,025.3,000.0,035.4,028.4,19.8,0000.0,0007.84,0004.08,0003.68
2023-09-16 10:58:00,SystemResetWarning,0835.9,5.01,000.00,026.9,025.3,000.0,035.3,028.4,19.9,0000.0,0007.86,0004.08,0003.67
2023-09-16 10:59:00,SystemResetWarning,0835.9,5.01,000.00,026.9,025.3,000.0,035.3,028.4,19.8,0000.0,0007.89,0004.08,0003.66
